EHI
0 0 0 0 0 0 0 0 0 0 0 0 0 0 0 0 0 0 0 0 0 0 0 0 0 0 0 0 0 0 0 0 0 0 0 0 0 0
0 0 0 0 0 0 0 0 0 0 0 0 0 0 0 0 0 0 0 0 0 0 0 0 0 0 0 0 0 0 0 0 0 0 0 0 0 0
0 0 0 0 0 0 0 0 0 0 0 0 0 0 0 0 0 0 0 0 0 0 0 0 0 0 0 0 0 0 0 0 0 0 0 0 0 0
0 0 0 0 0 0 0 0 0 0 0 0 0 0 0 0 0 0 0 0 0 0 0 0 0 0 0 0 0 0 0 0 0 0 0 0 0 0
0 0 0 0 0 0 0 0 0 0 0 0 0 0 0 0 0 0 0 0 0 0 0 0 0 0 0 0 0 0 0 0 0 0 0 0 0 0
0 0 0 0 0 0 0 0 0 0 0 0 0 0 0 0 0 0 0 0 0 0 0 0 0 0 0 0 0 0 0 0 0 0 0 0 0 0
0 0 0 0 0 0 0 0 0 0 0 0 0 0 0 0 0 0 0 0 0 0 0 0 0 0 0 0 0 0 0 0 0 0 0 0 0 0
0 0 0 0 0 0 0 0 0 0 0 0 0 0 0 0 0 0 0 0 0 0 0 0 0 0 0 0 0 0 0 0 0 0 0 0 0 0
0 0 0 0 0 0 0 0 0 0 0 0 0 0 0 0 0 0 0 0 0 0 0 0 0 0 0 0 0 0 0 0 0 0 0 0 0 0
0 0 0 0 0 0 0 0 0 0 0 0 0 0 0 0 0 0 0 0 0 0 0 0 0 0 0 0 0 0 0 0 0 0 0 0 0 0
0 0 0 0 0 0 0 0 0 0 0 0 0 0 0 0 0 0 0 0 0 0 0 0 0 0 0 0 0 0 0 0 0 0 0 0 0 0
0 0 0 0 0 0 0 0 0 0 0 0 0 0 0 0 0 0 0 0 0 0 0 0 0 0 0 0 0 0 0 0 0 0 0 0 0 0
0 0 0 0 0 0 0 0 0 0 0 0 0 0 0 0 0 0 0 0 0 0 0 0 0 0 0 0 0 0 0 0 0 0 0 0 0 0
0 0 0 0 0 0 0 0 0 0 0 0 0 0 0 0 0 0 0 0 0 0 0 0 0 0 0 0 0 0 0 0 0 0 0 0 0 0
0 0 0 0 0 0 0 0 0 0 0 0 0 0 0 0 0 0 0 0 0 0 0 0 0 0 0 0 0 0 0 0 0 0 0 0 0 0
0 0 0 0 0 0 0 0 0 0 0 0 0 0 0 0 0 0 0 0 0 0 0 0 0 0 0 0 0 0 0 0 0 0 0 0 0 0
0 0 0 0 0 0 0 0 0 0 0 0 0 0 0 0 0 0 0 0 0 0 0 0 0 0 0 0 0 0 0 0 0 0 0 0 0 0
0 0 0 0 0 0 0 0 0 0 0 0 0 0 0 0 0 0 0 0 0 0 0 0 0 0 0 0 0 0 0 0 0 0 0 0 0 0
0 0 0 0 0 0 0 0 0 0 0 0 0 0 0 0 0 0 0 0 0 0 0 0 0 0 0 0 0 0 0 0 0 0 0 0 0 0
0 0 0 0 0 0 0 0 0 0 0 0 0 0 0 0 0 0 0 0 0 0 0 0 0 0 0 0 0 0 0 0 0 0 0 0 0 0
0 0 0 0 0 0 0 0 0 0 0 0 0 0 0 0 0 0 0 0 0 0 0 0 0 0 0 0 0 0 0 0 0 0 0 0 0 0
0 0 0 0 0 0 0 0 0 0 0 0 0 0 0 0 0 0 0 0 0 0 0 0 0 0 0 0 0 0 0 0 0 0 0 0 0 0
0 0 0 0 0 0 0 0 0 0 0 0 0 0 0 0 0 0 0 0 0 0 0 0 0 0 0 0 0 0 0 0 0 0 0 0 0 0
Wind_Speed
5 4 3 2 3 3 3 3 3 2 3 3 3 2 4 4 10 7 6 18 24 24 24 24 24 24 25 25 25 25 25 25 26 26 26 27 27 28
3 4 3 2 3 3 3 3 3 4 4 4 4 4 6 7 13 8 8 22 22 23 23 23 24 25 25 25 25 25 26 26 26 27 27 27 28 28
4 4 3 3 3 3 2 2 3 4 6 5 4 4 5 7 9 8 9 8 10 21 23 24 24 25 25 25 26 26 26 26 26 27 27 27 27 28
4 3 3 3 3 3 3 3 4 4 5 7 4 4 6 7 8 9 10 10 8 19 24 24 25 25 25 25 25 25 26 26 26 27 27 27 27 28
3 3 3 3 4 3 4 4 4 5 4 5 6 4 5 6 8 9 10 9 10 14 20 22 24 24 25 25 26 26 26 27 27 26 26 26 27 27
2 1 2 4 4 5 4 5 5 4 4 5 6 6 6 6 6 7 9 6 8 10 15 17 20 23 24 26 26 27 27 27 27 27 27 27 27 27
1 1 2 4 6 5 5 4 4 4 4 4 6 7 8 7 7 7 11 10 9 9 8 7 9 9 12 19 23 25 27 27 27 28 28 28 28 27
1 2 3 4 6 9 10 11 11 6 5 4 6 9 10 9 8 9 10 12 10 3 6 9 8 10 9 8 20 27 27 28 28 28 28 27 27 26
2 2 2 3 6 4 8 12 12 14 15 10 10 10 11 11 11 12 11 12 13 9 10 14 9 11 9 12 25 28 29 29 28 27 26 25 25 24
1 1 2 4 6 7 6 6 6 7 11 9 9 11 11 11 11 12 12 12 11 9 8 12 12 12 11 9 21 28 28 27 26 25 25 26 26 26
2 2 4 4 11 14 8 6 7 8 13 18 19 18 21 22 18 9 7 9 13 11 5 7 7 9 10 10 14 22 23 23 25 27 27 27 26 25
3 3 7 9 13 14 8 7 9 8 8 9 11 13 12 14 18 9 5 9 11 9 3 4 6 7 9 6 6 7 12 21 27 27 27 27 26 16
3 3 4 14 15 16 14 7 11 12 5 6 7 9 8 7 7 6 6 7 11 11 7 5 7 5 8 10 7 8 11 11 11 15 21 25 25 19
3 3 6 15 16 16 12 13 17 13 5 7 8 8 7 8 8 8 9 9 11 15 14 11 10 10 12 15 13 9 8 9 11 12 11 18 20 22
4 11 14 15 14 9 12 16 12 5 6 7 8 8 7 8 9 9 9 10 12 13 13 13 13 12 12 14 14 14 13 11 11 10 9 8 10 10
6 9 12 12 10 11 10 8 5 5 7 7 9 9 9 8 8 8 10 10 11 11 9 11 12 13 13 14 14 16 13 11 9 10 11 12 11 11
5 2 2 4 4 5 5 5 5 6 6 7 8 10 10 10 10 8 8 9 10 13 14 9 7 10 14 14 15 16 15 14 13 11 11 14 12 11
6 3 4 4 5 7 7 8 7 7 6 7 8 9 9 10 11 9 9 10 11 12 13 12 11 12 10 11 18 17 14 13 12 12 12 15 16 10
3 4 4 5 5 6 6 6 8 7 7 7 8 8 9 9 10 10 10 10 11 12 12 11 11 12 14 16 9 14 13 13 13 13 12 13 16 13
3 4 5 5 6 6 6 7 8 8 7 8 8 9 8 9 10 10 10 11 12 13 13 11 10 11 12 16 16 14 14 13 13 14 13 12 14 18
4 4 5 5 6 6 6 7 8 8 9 9 9 9 9 9 10 10 11 16 15 12 13 13 13 19 14 11 12 13 12 13 16 15 15 14 14 12
5 5 6 6 6 6 7 7 8 8 9 8 9 9 9 9 11 13 12 12 12 12 14 13 13 12 11 12 14 16 16 16 16 21 21 19 13 9
5 6 6 6 6 6 6 7 9 9 8 9 9 9 10 10 10 11 12 12 12 13 13 13 12 11 11 12 13 14 18 17 13 13 12 16 20 21
Wind_Direction
137 137 132 136 134 138 143 154 179 259 277 271 287 289 329 311 308 311 305 309 306 304 304 303 301 299 298 297 295 293 293 292 291 288 285 283 280 278
140 140 141 152 151 153 161 171 176 197 246 252 251 278 297 303 308 311 296 305 305 303 300 301 300 299 297 296 296 296 295 293 290 288 285 283 281 279
142 156 170 169 171 182 185 192 204 200 246 263 250 274 281 286 298 292 291 286 289 299 301 300 298 298 298 298 297 295 293 292 291 289 288 286 284 282
151 159 183 185 193 200 206 221 228 222 235 272 275 272 273 281 285 288 296 293 287 296 298 299 299 298 297 296 295 295 295 295 294 291 289 286 284 281
145 173 202 201 217 222 227 235 240 247 240 267 284 275 276 283 287 286 284 281 285 292 297 297 296 296 296 296 297 298 296 295 292 290 287 283 280 278
100 166 222 218 225 231 237 242 246 256 261 268 282 290 289 285 281 290 297 281 284 290 288 289 291 294 294 294 294 294 292 291 288 286 284 282 279 277
62 328 278 254 245 251 251 243 238 245 259 269 285 296 297 299 296 292 297 299 286 276 276 277 282 278 281 285 289 288 286 285 285 285 285 284 282 279
350 327 306 289 289 302 302 297 291 282 280 276 287 292 294 292 292 294 298 302 300 273 285 290 282 282 278 270 281 285 286 287 288 287 286 283 280 277
359 339 329 325 333 305 295 298 297 296 296 295 291 286 287 288 289 290 288 289 292 296 297 292 285 282 279 281 287 288 289 289 288 286 285 282 281 281
8 332 304 301 303 298 276 274 267 275 284 283 270 270 273 274 271 283 291 293 287 280 273 283 288 284 285 278 285 285 286 286 286 286 286 286 284 281
291 300 310 296 305 309 303 289 283 279 290 290 288 290 293 299 300 298 293 296 296 293 268 268 281 292 287 275 275 281 284 287 288 288 287 284 282 280
293 297 313 315 309 310 302 290 290 286 282 288 292 295 293 291 295 285 272 284 292 294 254 256 285 306 297 261 253 269 278 282 284 285 285 284 283 280
306 304 300 314 313 312 312 301 295 303 304 305 301 296 293 288 286 275 258 262 279 277 277 282 282 275 273 287 276 268 272 276 280 279 282 282 280 276
297 288 290 308 314 319 320 310 312 323 322 306 299 297 297 296 294 288 279 267 260 267 275 274 275 278 281 284 287 284 274 274 275 276 272 277 277 275
288 300 307 315 323 325 315 316 324 321 304 300 299 296 289 285 290 291 289 282 275 269 268 263 263 270 270 275 281 286 291 287 272 268 267 262 261 264
293 298 314 325 326 318 316 316 306 292 299 298 300 299 299 296 293 293 297 302 298 291 271 253 253 259 269 271 275 280 279 276 275 271 272 272 266 257
310 327 333 322 318 313 308 302 300 306 305 299 298 300 300 299 297 297 291 295 290 295 301 296 259 251 256 265 273 272 274 274 271 273 275 276 269 257
346 333 317 315 313 315 316 314 311 305 301 300 297 294 295 296 297 296 292 291 291 291 292 296 301 298 285 255 238 257 267 272 275 273 272 277 279 265
338 306 301 303 302 301 300 300 301 300 298 295 293 293 293 293 294 296 297 295 292 290 290 290 292 294 298 301 272 233 256 277 282 279 273 271 277 278
309 301 299 299 299 299 299 299 300 302 300 297 294 292 292 292 294 294 294 293 294 295 295 293 288 289 291 295 297 290 269 272 282 284 283 277 273 275
309 302 296 294 294 294 294 293 293 294 295 295 293 292 292 293 292 292 292 295 297 295 297 297 292 297 294 289 288 291 292 281 279 283 287 286 285 282
303 300 297 292 292 292 292 292 294 293 294 293 292 292 292 290 291 293 293 295 295 294 295 296 298 301 300 299 298 299 301 303 297 291 283 276 281 284
299 299 296 294 289 286 287 288 289 290 290 290 291 291 293 293 291 289 290 292 295 300 305 307 308 306 304 301 300 301 303 307 308 308 301 292 288 283